Погода в Щедрино

Россия / Ярославская область     57°33′21″N   39°49′56″E
темп.,
°C
ветер,
м/с
пор.,
м/с
влажн.,
%
обл.,
%
осадки,
мм/ч
давл.,
гПа
погр.,
м
24 октября, вс
вс2400:00+4з488797 0.1 1006610
03:00+4з4784100 0.1 1007715
06:00+3зюз3697100 0.7 1007547
09:00+3з4797100 1.1 1008687
12:00+3з4898100 0.4 1009632
15:00+1ссз71193100 1.5 1013802
18:000ссз612765 0.1 1017750
21:000ссз512805 0.1 1019522
25 октября, пн
пн2500:00−1сз510835 0.0 1022401
03:00−2сз38875 0.0 1024293
06:00−2зсз37935 0.0 1025206
09:00−1з358287 0.0 1026263
12:00+1зюз4659100 0.0 1026642
15:00+2юз5963100 0.0 1024726
18:00+1юз61470100 0.0 1023663
21:00+2юз7147693 0.0 1021592
26 октября, вт
вт2600:00+1зюз61381100 0.0 1020539
03:00+2зюз61385100 0.0 1019499
06:00+1зюз6129062 0.0 1019388
09:00+1зюз5128689 0.0 1019401
12:00+4зюз6117098 0.0 1018524
15:00+4юз61172100 0.0 1017555
18:00+3юз5138184 0.0 1016386
21:00+2юз51383100 0.0 1016394
27 октября, ср
ср2700:00+2юз51287100 0.0 1016339
03:00+1юз5118989 0.0 1015316
06:00+1юз51189100 0.0 1014316
09:00+2юз61383100 0.0 1013420
12:00+5юз61372100 0.0 1011596
15:00+3зюз61294100 0.4 1011774
18:00+4зюз61293100 0.9 1011702
21:00+5зюз71290100 1.1 1011946
28 октября, чт
чт2800:00+6з71482100 0.4 1012746
03:00+6з71382100 0.4 1013804
06:00+5з61383100 0.0 1013633
09:00+6з51080100 0.0 1015566
12:00+7з5974100 0.0 1015960
15:00+7з3775100 0.0 1015469
18:00+5сз3585100 0.0 1016369
21:00+4ссв578397 0.1 1017622